When you browse on this site, cookies collect data to enhance your experience and personalize the content and advertising you see.
Visit our Privacy Policy to learn more. By continuing to use the site, you agree to this use of cookies and data.
  • In United Kingdom
  • List of Countries
  • For 7 days
  • Water Temperature
  • Satellite Maps
  • Weather Map
  • Weather Widgets
  • user-avatar
    Login

    Hourly Weather Dumfries

    Today, 20 June, Thursday

    Time Temperature Precipitation Wind Pressure Humidity
    00:00 +10°C° 0 mm 2 mps 751 mmHg 97%
    01:00 +10°C° 0.7 mm 2 mps 750 mmHg 96%
    02:00 +10°C° 0.7 mm 2 mps 750 mmHg 96%
    03:00 +9°C° 0.7 mm 2 mps 750 mmHg 95%
    04:00 +9°C° 0 mm 2 mps 750 mmHg 94%
    05:00 +9°C° 0 mm 3 mps 750 mmHg 94%
    06:00 +10°C° 0 mm 3 mps 750 mmHg 93%
    07:00 +11°C° 0.1 mm 4 mps 750 mmHg 88%
    08:00 +10°C° 0.1 mm 5 mps 750 mmHg 84%
    09:00 +12°C° 0.1 mm 5 mps 751 mmHg 79%
    10:00 +13°C° 0.5 mm 5 mps 751 mmHg 78%
    11:00 +13°C° 0.5 mm 6 mps 751 mmHg 78%
    12:00 +14°C° 0.5 mm 6 mps 751 mmHg 77%
    13:00 +14°C° 0.4 mm 6 mps 752 mmHg 74%
    14:00 +14°C° 0.4 mm 6 mps 752 mmHg 70%
    15:00 +14°C° 0.4 mm 6 mps 752 mmHg 67%
    16:00 +14°C° 0 mm 6 mps 752 mmHg 66%
    17:00 +13°C° 0 mm 6 mps 753 mmHg 66%
    18:00 +13°C° 0 mm 6 mps 753 mmHg 66%
    19:00 +10°C° 0 mm 5 mps 753 mmHg 71%
    20:00 +10°C° 0 mm 4 mps 754 mmHg 76%
    21:00 +8°C° 0 mm 3 mps 754 mmHg 82%
    22:00 +7°C° 0 mm 3 mps 755 mmHg 85%
    23:00 +7°C° 0 mm 2 mps 755 mmHg 89%

    Tomorrow, 21 June, Friday

    Time Temperature Precipitation Wind Pressure Humidity
    00:00 +6°C° 0 mm 2 mps 755 mmHg 92%
    01:00 +6°C° 0 mm 2 mps 755 mmHg 93%
    02:00 +6°C° 0 mm 2 mps 756 mmHg 93%
    03:00 +6°C° 0 mm 2 mps 756 mmHg 94%
    04:00 +7°C° 0 mm 2 mps 756 mmHg 91%
    05:00 +8°C° 0 mm 3 mps 756 mmHg 88%
    06:00 +9°C° 0 mm 3 mps 757 mmHg 85%
    07:00 +10°C° 0 mm 3 mps 757 mmHg 79%
    08:00 +11°C° 0 mm 4 mps 758 mmHg 72%
    09:00 +13°C° 0 mm 4 mps 758 mmHg 66%
    10:00 +14°C° 0 mm 4 mps 758 mmHg 63%
    11:00 +14°C° 0 mm 4 mps 759 mmHg 61%
    12:00 +15°C° 0 mm 5 mps 759 mmHg 58%
    13:00 +15°C° 0.1 mm 5 mps 759 mmHg 59%
    14:00 +15°C° 0.1 mm 5 mps 760 mmHg 60%
    15:00 +15°C° 0.1 mm 5 mps 760 mmHg 61%
    16:00 +15°C° 0 mm 4 mps 760 mmHg 62%
    17:00 +15°C° 0 mm 4 mps 760 mmHg 62%
    18:00 +14°C° 0 mm 4 mps 761 mmHg 63%
    19:00 +12°C° 0 mm 3 mps 761 mmHg 68%
    20:00 +12°C° 0 mm 2 mps 761 mmHg 74%
    21:00 +9°C° 0 mm 2 mps 762 mmHg 79%
    22:00 +9°C° 0 mm 1 mps 762 mmHg 82%
    23:00 +8°C° 0 mm 1 mps 762 mmHg 86%

    Day after tomorrow, 22 June, Saturday

    Time Temperature Precipitation Wind Pressure Humidity
    00:00 +8°C° 0 mm 1 mps 762 mmHg 89%
    01:00 +8°C° 0 mm 1 mps 762 mmHg 89%
    02:00 +8°C° 0 mm 1 mps 762 mmHg 90%
    03:00 +8°C° 0 mm 1 mps 762 mmHg 90%
    04:00 +9°C° 0 mm 1 mps 762 mmHg 89%
    05:00 +9°C° 0 mm 0 mps 762 mmHg 88%
    06:00 +10°C° 0 mm 0 mps 762 mmHg 87%
    07:00 +11°C° 0 mm 1 mps 762 mmHg 84%
    08:00 +12°C° 0 mm 1 mps 762 mmHg 81%
    09:00 +13°C° 0 mm 1 mps 762 mmHg 78%
    10:00 +14°C° 0 mm 1 mps 762 mmHg 77%
    11:00 +15°C° 0 mm 1 mps 762 mmHg 77%
    12:00 +16°C° 0 mm 2 mps 762 mmHg 77%
    13:00 +16°C° 0.3 mm 2 mps 762 mmHg 77%
    14:00 +18°C° 0.3 mm 1 mps 762 mmHg 77%
    15:00 +18°C° 0.3 mm 1 mps 762 mmHg 77%
    16:00 +18°C° 0.2 mm 1 mps 762 mmHg 78%
    17:00 +18°C° 0.2 mm 1 mps 762 mmHg 80%
    18:00 +18°C° 0.2 mm 1 mps 762 mmHg 81%
    19:00 +15°C° 0.1 mm 0 mps 762 mmHg 83%
    20:00 +14°C° 0.1 mm 0 mps 762 mmHg 86%
    21:00 +13°C° 0.1 mm 0 mps 762 mmHg 89%
    22:00 +13°C° 0 mm 1 mps 762 mmHg 90%
    23:00 +13°C° 0 mm 1 mps 762 mmHg 91%

    23 June, Sunday

    Time Temperature Precipitation Wind Pressure Humidity
    00:00 +12°C° 0 mm 1 mps 762 mmHg 92%
    01:00 +12°C° 0 mm 1 mps 762 mmHg 93%
    02:00 +12°C° 0 mm 1 mps 762 mmHg 93%
    03:00 +12°C° 0 mm 1 mps 762 mmHg 94%
    04:00 +12°C° 0 mm 1 mps 762 mmHg 93%
    05:00 +13°C° 0 mm 1 mps 762 mmHg 92%
    06:00 +13°C° 0 mm 1 mps 761 mmHg 91%
    07:00 +14°C° 0.2 mm 1 mps 762 mmHg 90%
    08:00 +15°C° 0.2 mm 1 mps 762 mmHg 90%
    09:00 +15°C° 0.2 mm 1 mps 762 mmHg 89%
    10:00 +16°C° 0.3 mm 2 mps 762 mmHg 85%
    11:00 +18°C° 0.3 mm 2 mps 762 mmHg 82%
    12:00 +19°C° 0.3 mm 2 mps 762 mmHg 78%
    13:00 +19°C° 0.3 mm 2 mps 762 mmHg 76%
    14:00 +20°C° 0.3 mm 2 mps 762 mmHg 74%
    15:00 +20°C° 0.3 mm 3 mps 762 mmHg 72%
    16:00 +19°C° 0.2 mm 3 mps 762 mmHg 76%
    17:00 +19°C° 0.2 mm 3 mps 762 mmHg 80%
    18:00 +18°C° 0.2 mm 3 mps 762 mmHg 84%
    19:00 +17°C° 0.1 mm 3 mps 762 mmHg 88%
    20:00 +16°C° 0.1 mm 3 mps 762 mmHg 91%
    21:00 +13°C° 0.1 mm 3 mps 762 mmHg 95%
    22:00 +13°C° 0 mm 3 mps 762 mmHg 95%
    23:00 +13°C° 0 mm 3 mps 762 mmHg 95%

    24 June, Monday

    Time Temperature Precipitation Wind Pressure Humidity
    00:00 +12°C° 0 mm 3 mps 762 mmHg 96%
    01:00 +12°C° 0.9 mm 4 mps 762 mmHg 96%
    02:00 +12°C° 0.9 mm 4 mps 761 mmHg 96%
    03:00 +12°C° 0.9 mm 5 mps 761 mmHg 97%
    04:00 +12°C° 2.4 mm 5 mps 761 mmHg 97%
    05:00 +12°C° 2.4 mm 5 mps 760 mmHg 97%
    06:00 +12°C° 2.4 mm 5 mps 760 mmHg 97%
    07:00 +13°C° 2.2 mm 5 mps 760 mmHg 97%
    08:00 +13°C° 2.2 mm 6 mps 759 mmHg 97%
    09:00 +13°C° 2.2 mm 6 mps 759 mmHg 97%
    10:00 +13°C° 4.7 mm 6 mps 759 mmHg 97%
    11:00 +13°C° 4.7 mm 5 mps 759 mmHg 97%
    12:00 +13°C° 4.7 mm 4 mps 758 mmHg 98%
    13:00 +13°C° 1.5 mm 3 mps 758 mmHg 96%
    14:00 +15°C° 1.5 mm 2 mps 758 mmHg 94%
    15:00 +16°C° 1.5 mm 1 mps 758 mmHg 93%
    16:00 +18°C° 0 mm 1 mps 759 mmHg 90%
    17:00 +19°C° 0 mm 1 mps 759 mmHg 88%
    18:00 +19°C° 0 mm 1 mps 759 mmHg 86%
    19:00 +19°C° 0 mm 1 mps 760 mmHg 88%
    20:00 +16°C° 0 mm 0 mps 761 mmHg 91%
    21:00 +16°C° 0 mm 0 mps 761 mmHg 94%
    22:00 +15°C° 0 mm 0 mps 762 mmHg 94%
    23:00 +15°C° 0 mm 0 mps 762 mmHg 95%

    25 June, Tuesday

    Time Temperature Precipitation Wind Pressure Humidity
    00:00 +15°C° 0 mm 0 mps 762 mmHg 96%
    01:00 +14°C° 0 mm 0 mps 763 mmHg 96%
    02:00 +14°C° 0 mm 0 mps 763 mmHg 96%
    03:00 +13°C° 0 mm 0 mps 763 mmHg 97%
    04:00 +14°C° 0 mm 0 mps 763 mmHg 96%
    05:00 +15°C° 0 mm 0 mps 763 mmHg 95%
    06:00 +16°C° 0 mm 0 mps 764 mmHg 94%
    07:00 +19°C° 0 mm 1 mps 764 mmHg 88%
    08:00 +20°C° 0 mm 1 mps 764 mmHg 83%
    09:00 +22°C° 0 mm 1 mps 765 mmHg 78%
    10:00 +22°C° 0 mm 1 mps 765 mmHg 77%
    11:00 +21°C° 0 mm 2 mps 765 mmHg 76%
    12:00 +22°C° 0 mm 3 mps 765 mmHg 76%
    13:00 +22°C° 0 mm 3 mps 765 mmHg 76%
    14:00 +22°C° 0 mm 4 mps 765 mmHg 77%
    15:00 +22°C° 0 mm 4 mps 765 mmHg 77%
    16:00 +21°C° 0 mm 4 mps 765 mmHg 80%
    17:00 +20°C° 0 mm 4 mps 765 mmHg 83%
    18:00 +19°C° 0 mm 4 mps 766 mmHg 86%
    19:00 +18°C° 0 mm 3 mps 766 mmHg 89%
    20:00 +17°C° 0 mm 3 mps 766 mmHg 92%
    21:00 +16°C° 0 mm 3 mps 767 mmHg 95%
    22:00 +14°C° 0 mm 3 mps 767 mmHg 95%
    23:00 +14°C° 0 mm 3 mps 767 mmHg 94%
    Show more